Location: Bruderhein
(53.8035°N, 112.9265°W)
Time: 01:47:21
(UTC+00:00)

KKS-1 - Pass Details

Date: 09 April 2023
Orbit: 633 x 644 km, 98.2° (Epoch: 31 May)

Event Time Altitude Azimuth Distance (km) Brightness Sun altitude
Rises 07:31:05 0° 8° (N) 2,946 ? -28.7°
Reaches altitude 10° 07:33:34 10° 356° (N) 2,033 ? -28.7°
Maximum altitude 07:37:13 26° 300° (WNW) 1,253 ? -28.7°
Enters shadow 07:37:20 26° 297° (WNW) 1,254 ? -28.7°
